Погода в Куратово

Россия / Республика Коми     60°54′28″N   49°43′21″E
темп.,
°C
ветер,
м/с
пор.,
м/с
влажн.,
%
обл.,
%
осадки,
мм/ч
давл.,
гПа
погр.,
м
7 марта, вс
вс700:00−20юз229999 0.0 100833
03:00−21юз2210097 0.1 100823
06:00−21ююз22100100 0.0 100734
09:00−17ююз2495100 0.1 1006241
12:00−12ю2387100 0.0 1005501
15:00−11ююв2487100 0.1 1004702
18:00−15вюв2397100 0.1 100346
21:00−16вюв2598100 0.1 1002129
8 марта, пн
пн800:00−18в259899 0.0 1001120
03:00−18всв3898100 0.0 1000216
06:00−18всв3997100 0.0 1000286
09:00−16св4794100 0.1 1000311
12:00−14св4892100 0.1 1000441
15:00−13св4892100 0.2 1001590
18:00−15ссв41094100 0.3 1002582
21:00−17ссв4995100 0.3 1005474
9 марта, вт
вт900:00−22с3998100 0.0 1006284
03:00−25с389797 0.1 1009233
06:00−29с389721 0.0 1011198
09:00−27с359319 0.0 1014306
12:00−22с358970 0.0 1015480
15:00−21с358883 0.0 1017588
18:00−25с239793 0.0 101833
21:00−28с229946 0.0 102019
10 марта, ср
ср1000:00−29ссз12990 0.0 102119
03:00−30сз12990 0.0 102119
06:00−31зсз22980 0.0 102119
09:00−25зсз24930 0.0 1021229
12:00−18з358546 0.0 1020401
15:00−17зсз479069 0.0 1019571
18:00−19зсз31096100 0.0 1019348
21:00−17зсз41195100 0.2 1018438
11 марта, чт
чт1100:00−17зсз4996100 0.4 1017379
03:00−15зсз41194100 0.6 1017436
06:00−14зсз41095100 0.1 1018346
09:00−12сз498798 0.1 1019366
12:00−9зсз497975 0.0 1019532
15:00−8зсз497839 0.0 1019723
18:00−12з312880 0.0 1020400
21:00−13з413900 0.0 1021441